EHI
8 7 4 2 1 1 2 4 5 4 2 2 2 1 0 0 0 0 0 0 0 0 0 0 0 0 0 0 0 0 0 0 0 0 0 0 1 2 3 3 3 2 3
4 3 2 2 2 3 5 6 7 6 3 2 1 0 0 0 0 0 0 0 0 0 0 0 0 0 0 0 0 0 0 0 0 0 0 0 1 2 2 3 3 3 3
1 1 1 2 3 5 6 8 10 9 6 3 1 0 0 0 0 0 0 0 0 0 0 0 0 0 0 0 0 0 0 0 0 0 0 0 0 1 2 2 3 3 2
0 0 1 1 3 4 6 9 12 15 13 9 3 1 0 0 0 0 0 0 0 0 0 0 0 0 0 0 0 0 0 0 0 0 0 0 0 0 1 1 2 1 1
0 0 0 1 3 4 6 10 16 21 20 13 6 2 1 0 0 0 0 0 0 0 0 0 0 0 0 0 0 0 0 0 0 0 0 0 0 0 0 0 0 0 0
0 0 0 1 4 5 6 9 15 20 17 10 5 2 1 0 0 0 0 0 0 0 0 0 0 0 0 0 0 0 0 0 0 0 0 0 0 0 0 0 0 0 0
0 0 0 2 5 5 5 6 8 10 7 4 2 1 0 0 0 0 0 0 0 0 0 0 0 0 0 0 0 0 0 0 0 0 0 0 0 0 0 0 0 0 0
0 0 1 2 4 5 4 3 3 3 1 0 0 0 0 0 0 0 0 0 0 0 0 0 0 0 0 0 0 0 0 0 0 0 0 0 0 0 0 0 0 0 0
0 0 1 2 4 4 3 3 2 2 1 0 0 0 0 0 0 0 0 0 0 0 0 0 0 0 0 0 0 0 0 0 0 0 0 0 0 0 0 0 0 0 0
0 0 1 1 2 3 2 1 1 1 0 0 0 0 0 0 0 0 0 0 0 0 0 0 0 0 0 0 0 0 0 0 0 0 0 0 0 0 0 0 0 0 0
0 0 0 0 0 1 1 0 0 0 0 0 0 0 0 0 0 0 0 0 0 0 0 0 0 0 0 0 0 0 0 0 0 0 0 0 0 0 0 0 0 0 0
0 0 0 0 0 0 0 0 0 0 0 0 0 0 0 0 0 0 0 0 0 0 0 0 0 0 0 0 0 0 0 0 0 0 0 0 0 0 0 0 0 0 0
1 0 0 0 0 0 0 0 0 0 0 0 0 0 0 0 0 0 0 0 0 0 0 0 0 0 0 0 0 0 0 0 0 0 0 0 0 0 0 0 0 0 0
1 0 0 0 0 0 0 0 0 0 0 0 0 0 0 0 0 0 0 0 0 0 0 0 0 0 0 0 0 0 0 0 0 0 0 0 0 0 0 0 0 0 0
1 0 0 0 0 0 0 0 0 0 0 0 0 0 0 0 0 0 0 0 0 0 0 0 0 0 0 0 0 0 0 0 0 0 0 0 0 0 0 0 0 0 0
0 0 0 0 0 0 0 0 0 0 0 0 0 0 0 0 0 0 0 0 0 0 0 0 0 0 0 0 0 0 0 0 0 0 0 0 0 0 0 0 0 0 0
0 0 0 0 0 0 0 0 0 0 0 0 0 0 0 0 0 0 0 0 0 0 0 0 0 0 0 0 0 0 0 0 0 0 0 0 0 0 0 0 0 0 0
0 0 0 0 0 0 0 0 0 0 0 0 0 0 0 0 0 0 0 0 0 0 0 0 0 0 0 0 0 0 0 0 0 0 0 0 0 0 0 0 0 0 0
0 0 0 0 0 0 0 0 0 0 0 0 0 0 0 0 0 0 0 0 0 0 0 0 0 0 0 0 0 0 0 0 0 0 0 0 0 0 0 0 0 0 0
0 0 0 0 0 0 0 0 0 0 0 0 0 0 0 0 0 0 0 0 0 0 0 0 0 0 0 0 0 0 0 0 0 0 0 0 0 0 0 0 0 0 0
0 0 0 0 0 0 0 0 0 0 0 0 0 0 0 0 0 0 0 0 0 0 0 0 0 0 0 0 0 0 0 0 0 0 0 0 0 0 0 0 0 0 0
0 0 0 0 0 0 0 0 0 0 0 0 0 0 0 0 0 0 0 0 0 0 0 0 0 0 0 0 0 0 0 0 0 0 0 0 0 0 0 0 0 0 0
0 0 0 0 0 0 0 0 0 0 0 0 0 0 0 0 0 0 0 0 0 0 0 0 0 0 0 0 0 0 0 0 0 0 0 0 0 0 0 0 0 0 0
0 0 0 0 0 0 0 0 0 0 0 0 0 0 0 0 0 0 0 0 0 0 0 0 0 0 0 0 0 0 0 0 0 0 0 0 0 0 0 0 0 0 0
0 0 0 0 0 0 0 0 0 0 0 0 0 0 0 0 0 0 0 0 0 0 0 0 0 0 0 0 0 0 0 0 0 0 0 0 0 0 0 0 0 0 0
0 0 0 0 0 0 0 0 0 0 0 0 0 0 0 0 0 0 0 0 0 0 0 0 0 0 0 0 0 0 0 0 0 0 0 0 0 0 0 0 0 0 0
Wind_Speed
8 8 8 8 8 7 7 7 6 5 4 2 2 1 1 2 2 3 4 4 5 6 5 6 4 5 5 5 7 6 7 6 5 7 7 8 9 9 8 8 9 10 12
8 8 9 9 9 9 8 8 8 7 6 3 2 2 3 3 3 3 2 4 5 6 5 5 7 5 5 6 6 6 7 7 5 6 8 7 6 5 6 6 7 8 8
9 10 10 10 10 10 9 8 7 7 6 4 4 2 3 4 3 3 3 3 5 6 5 6 7 6 8 6 6 7 8 7 7 5 6 6 5 6 3 4 4 4 4
9 10 11 11 11 10 9 8 8 7 6 6 5 5 5 6 5 5 4 5 5 5 5 6 6 6 7 6 7 5 6 7 8 5 4 5 6 6 6 5 3 4 5
11 11 11 10 10 9 8 8 8 7 7 6 5 6 6 5 5 5 5 6 5 5 5 5 6 6 6 6 7 6 7 7 8 7 6 6 5 7 7 8 6 6 5
10 10 10 9 9 8 8 7 7 7 6 6 6 6 6 6 7 7 7 6 5 4 4 5 5 6 6 6 6 6 8 6 7 8 8 7 7 7 7 8 8 7 6
10 10 10 10 9 8 8 6 6 6 6 6 6 5 5 6 7 8 6 6 6 5 4 5 6 6 6 7 7 7 7 8 8 8 8 8 8 8 8 9 9 9 7
10 9 9 8 7 7 7 6 6 5 6 6 5 5 5 6 6 5 7 7 6 6 6 7 7 7 7 8 7 8 8 7 8 9 9 8 9 8 8 8 9 10 9
8 8 7 7 6 6 6 6 5 5 5 5 5 6 6 7 7 7 8 7 6 7 7 8 8 8 8 8 9 8 8 8 9 10 9 9 8 8 8 8 9 10 10
8 7 7 7 7 7 6 6 5 5 5 6 6 5 6 6 7 8 8 8 8 8 9 9 9 9 9 9 9 10 9 8 9 8 9 9 9 8 8 8 9 9 10
8 8 8 7 7 7 7 6 6 6 6 6 6 6 7 7 7 7 8 8 8 9 9 9 9 10 10 9 9 10 10 10 10 10 10 10 10 9 9 9 9 9 9
8 8 8 8 8 8 7 7 6 6 6 6 6 7 7 7 8 9 8 8 9 9 9 9 10 11 11 10 10 11 11 11 11 11 11 11 10 11 10 10 10 10 9
9 9 9 8 8 7 7 6 6 6 6 6 7 7 8 8 8 9 9 9 9 10 10 10 11 11 11 11 11 11 11 11 12 12 12 12 12 12 11 11 11 10 10
9 9 9 8 8 7 7 6 6 6 6 6 7 7 8 8 8 9 9 9 9 10 10 11 11 11 11 11 11 11 11 12 12 12 12 12 13 13 12 11 12 11 11
10 10 10 9 8 8 7 7 6 6 6 7 8 8 8 8 8 9 9 9 10 11 11 11 11 11 11 10 10 10 11 12 12 12 12 13 12 12 11 11 11 11 10
10 10 10 9 9 9 8 7 6 6 6 7 8 8 8 8 9 9 9 10 10 10 10 11 12 12 10 5 4 10 13 13 13 13 12 12 13 14 16 17 17 16 14
9 10 10 9 9 8 8 7 6 6 6 7 8 8 8 9 9 9 10 10 11 11 11 11 12 12 11 8 9 11 12 14 14 13 12 11 11 10 13 15 19 20 21
9 9 9 9 9 8 8 7 7 6 7 7 8 8 8 9 9 9 10 10 10 10 10 11 12 12 11 8 10 10 13 14 14 14 14 13 13 12 11 12 13 14 15
9 9 9 9 9 9 8 8 7 7 7 8 8 8 8 9 9 10 10 10 10 10 11 11 11 12 12 9 10 11 11 12 14 13 13 13 13 10 8 12 14 14 13
9 9 9 9 9 9 8 8 8 8 8 8 7 8 8 9 10 10 10 10 10 10 11 11 11 12 13 9 9 10 10 12 11 11 11 12 13 9 7 12 13 14 13
11 11 11 10 10 10 9 9 9 9 8 7 7 8 8 9 10 10 10 10 10 11 11 12 12 12 12 11 10 11 10 11 11 10 9 8 9 11 11 12 13 13 12
11 11 11 10 9 10 10 10 10 8 7 7 8 8 8 9 8 9 10 10 11 11 12 11 12 10 9 9 8 10 12 12 11 11 10 7 4 8 10 11 12 12 11
9 10 11 11 10 11 11 11 9 7 7 8 8 8 9 9 9 10 11 10 10 9 9 9 10 9 8 6 10 11 13 13 11 11 10 9 7 8 11 16 16 13 11
8 9 10 11 10 10 11 10 8 7 7 8 8 8 9 10 9 8 9 9 9 9 9 9 10 10 9 8 7 6 7 11 12 11 10 13 15 14 13 10 11 12 11
5 6 8 9 9 9 9 8 8 8 9 9 9 9 10 9 8 9 8 10 9 8 10 11 10 10 11 7 6 8 9 9 7 8 9 10 9 9 9 9 9 9 10
5 4 5 6 6 6 6 7 7 9 10 9 10 9 8 7 8 9 9 10 12 11 13 15 14 12 13 14 13 11 11 12 9 7 10 10 9 10 9 9 9 9 9
Wind_Direction
164 168 172 175 176 180 183 186 189 173 194 207 244 269 308 319 336 348 14 343 342 343 324 318 318 297 298 306 299 296 289 282 303 293 286 271 251 243 241 239 242 239 234
172 177 185 188 193 193 197 200 203 200 212 206 252 298 319 309 330 334 347 327 333 326 318 333 307 310 303 283 288 285 293 298 296 300 303 295 272 234 241 234 232 241 240
184 186 195 200 204 207 209 214 214 212 220 221 236 241 244 257 269 315 313 328 321 316 322 316 314 317 297 304 306 291 280 290 290 287 299 303 313 325 266 258 250 250 251
194 198 202 207 211 214 214 217 218 221 220 223 245 270 290 305 323 313 322 314 298 304 307 308 309 308 304 310 291 304 298 283 283 277 265 278 308 300 300 282 274 272 266
199 205 211 214 218 219 219 218 220 223 220 227 234 252 274 295 301 306 299 292 292 286 294 303 305 302 296 311 310 306 291 286 283 290 284 275 263 259 276 289 297 294 286
203 210 216 217 221 221 221 221 217 219 216 222 232 249 277 289 298 297 301 292 290 285 288 290 296 292 300 302 294 294 280 285 294 291 287 282 278 276 280 283 287 289 291
205 208 213 215 217 219 218 215 209 212 211 219 230 242 260 271 270 280 289 291 295 295 303 301 293 294 295 288 287 280 286 283 280 276 278 282 281 283 283 283 287 288 286
206 211 214 213 213 211 203 200 203 212 213 222 233 244 253 267 279 283 292 292 293 300 311 291 283 284 284 283 281 278 271 270 273 273 277 279 274 277 275 277 285 286 283
205 206 202 200 195 192 188 194 200 214 223 234 238 245 253 270 284 285 271 277 286 289 289 286 282 281 281 279 278 273 277 275 270 271 263 260 272 269 270 271 272 278 283
200 196 189 184 181 179 178 191 206 222 235 242 248 251 256 261 266 275 288 288 287 286 285 282 281 280 279 275 270 271 264 266 266 268 276 276 274 276 272 268 267 265 270
194 183 180 177 178 181 187 199 210 225 237 248 252 263 266 270 269 269 274 278 282 285 281 280 281 280 280 276 270 269 274 267 267 266 263 261 268 274 276 269 264 262 262
187 179 177 180 189 197 202 209 223 233 243 251 255 258 263 268 271 275 279 279 278 279 281 281 280 280 279 276 271 270 271 268 266 265 265 265 262 259 264 270 268 266 267
186 183 184 192 200 206 214 224 232 243 251 252 255 259 264 268 273 280 282 281 279 279 281 281 279 280 280 277 273 270 269 268 267 266 264 264 263 263 262 262 265 266 260
191 194 195 201 206 209 215 229 241 251 256 260 262 264 268 275 280 283 283 280 280 280 281 281 281 280 278 275 272 271 269 268 267 265 264 263 261 259 259 258 257 262 266
199 202 206 204 205 209 216 227 239 246 254 261 265 267 270 275 279 281 281 281 281 281 282 281 280 278 276 271 276 280 277 275 272 267 262 259 258 265 266 269 266 260 256
210 209 210 210 209 212 218 224 234 242 246 258 267 272 275 277 279 282 283 283 282 283 282 280 280 279 278 292 286 277 281 278 274 271 268 264 249 242 238 247 259 267 268
219 215 214 214 213 213 215 222 231 240 247 255 264 270 273 277 282 285 287 287 287 285 282 280 279 278 277 265 250 251 269 273 271 271 270 268 265 249 249 237 233 241 247
224 219 217 212 209 209 208 216 227 234 248 257 264 270 274 278 283 285 286 287 287 286 283 282 280 278 275 255 244 246 260 266 267 266 265 265 267 262 259 261 253 246 239
226 222 220 214 206 206 205 210 227 238 249 258 265 271 276 281 282 284 287 289 287 284 282 280 280 278 277 256 239 242 270 266 266 265 263 263 263 258 240 255 260 259 256
223 216 212 210 200 201 201 212 229 239 249 261 268 273 275 277 280 284 288 288 285 281 282 283 283 281 279 269 236 231 265 270 271 268 262 250 246 259 236 251 256 256 255
221 214 211 209 204 197 197 214 231 241 251 260 266 268 270 271 273 279 282 283 282 284 285 285 282 277 273 269 244 228 256 272 277 277 274 269 208 218 227 241 255 260 269
226 215 211 212 203 196 200 216 229 239 248 254 259 263 266 270 275 276 278 280 281 281 279 279 280 275 268 256 250 223 233 260 275 276 275 277 190 214 228 237 248 251 255
240 225 218 216 205 198 205 222 228 230 239 248 256 262 267 267 269 273 277 277 274 275 282 286 286 287 286 268 227 227 232 236 252 270 282 291 273 254 243 237 238 238 237
255 238 227 224 214 205 208 221 228 226 231 244 256 261 263 264 263 267 271 275 280 282 283 284 287 290 289 285 282 265 242 229 239 256 261 242 242 245 258 253 226 227 233
287 259 238 233 227 212 212 217 219 221 228 239 250 258 262 264 269 267 269 274 278 286 288 292 294 293 292 309 347 312 298 300 312 308 283 272 263 249 241 240 237 234 227
333 302 271 251 237 220 216 217 219 221 228 238 246 252 257 260 264 270 270 242 240 251 246 249 261 278 277 287 291 281 272 269 271 270 265 265 263 260 256 248 241 234 231